Weather History for KSLH - December, 2011

Change the Weather History Date:

Wednesday, December 28, 2011

  Actual Average (KPLN) Record (KPLN)
Temperature  
Mean Temperature 12 °F -  
Max Temperature 16 °F 28 °F 49 °F (1982)
Min Temperature 8 °F 12 °F -20 °F (2000)
Degree Days  
Heating Degree Days 53    
Moisture  
Dew Point 4 °F    
Average Humidity 70    
Maximum Humidity 87    
Minimum Humidity 50    
Precipitation  
Precipitation 0.00 in - - ()
Sea Level Pressure  
Sea Level Pressure 29.96 in    
Wind  
Wind Speed 11 mph (NNW)    
Max Wind Speed 20 mph    
Max Gust Speed 32 mph    
Visibility 10 miles    
Events      
Averages and records for this station are not official NWS values.
T = Trace of Precipitation, MM = Missing Value Source: NWS Daily Summary

Daily Weather History Graph

Daily Weather History Graph

Search for Another Location

Airport or City:

Trip Planner

Search our weather history database for the weather conditions in past years. The results will help you decide how hot, cold, wet, or windy it might be!

Date:

Astronomy

Dec. 28, 2011 Rise Set
Actual Time 8:18 AM EST 5:01 PM EST
Civil Twilight 7:43 AM EST 5:35 PM EST
Nautical Twilight 7:06 AM EST 6:13 PM EST
Astronomical Twilight 6:30 AM EST 6:49 PM EST
Moon 10:31 AM EST (12/28) 9:50 PM EST (12/28)
Length of Visible Light 9h 51m
Length of Day
8h 42m
Waxing Crescent, 18% of the Moon is Illuminated
Dec 28
Waxing Crescent
Jan 1
First Quarter
Jan 9
Full
Jan 16
Last Quarter
Jan 23
New

Hourly Weather History & Observations

Time (EST) Temp. Windchill Dew Point Humidity Pressure Visibility Wind Dir Wind Speed Gust Speed Precip Events Conditions
12:14 AM 14.7 °F -1.6 °F 8.6 °F 77% 29.82 in 10.0 mi NNW 17.3 mph 27.6 mph N/A   Overcast
12:34 AM 15.1 °F -0.6 °F 9.1 °F 77% 29.82 in 10.0 mi NNW 16.1 mph 25.3 mph N/A   Overcast
12:54 AM 14.9 °F -0.8 °F 9.0 °F 77% 29.83 in 10.0 mi NW 16.1 mph 26.5 mph N/A   Overcast
1:15 AM 15.4 °F -1.1 °F 9.7 °F 78% 29.85 in 10.0 mi NNW 18.4 mph 23.0 mph N/A   Overcast
1:34 AM 15.6 °F 0.6 °F 9.5 °F 77% 29.85 in 10.0 mi NNW 15.0 mph 25.3 mph N/A   Overcast
1:54 AM 14.7 °F -1.1 °F 8.4 °F 76% 29.86 in 10.0 mi NNW 16.1 mph 32.2 mph N/A   Overcast
2:15 AM 14.7 °F -1.1 °F 8.6 °F 77% 29.87 in 10.0 mi NNW 16.1 mph 21.9 mph N/A   Overcast
2:34 AM 13.6 °F -3.5 °F 6.6 °F 74% 29.88 in 10.0 mi NNW 18.4 mph 24.2 mph N/A   Mostly Cloudy
2:54 AM 13.5 °F -2.7 °F 6.8 °F 75% 29.89 in 10.0 mi NNW 16.1 mph 24.2 mph N/A   Mostly Cloudy
3:14 AM 13.3 °F -4.4 °F 5.5 °F 71% 29.90 in 10.0 mi NNW 19.6 mph 25.3 mph N/A   Mostly Cloudy
3:34 AM 13.1 °F -3.1 °F 3.2 °F 65% 29.91 in 10.0 mi NNW 16.1 mph 20.7 mph N/A   Scattered Clouds
3:54 AM 12.6 °F -3.3 °F 1.9 °F 63% 29.91 in 10.0 mi North 15.0 mph 20.7 mph N/A   Clear
4:14 AM 12.2 °F -3.1 °F 1.4 °F 62% 29.92 in 10.0 mi NNW 13.8 mph 19.6 mph N/A   Clear
4:34 AM 11.8 °F -3.6 °F 0.9 °F 61% 29.93 in 10.0 mi North 13.8 mph 25.3 mph N/A   Clear
4:54 AM 11.3 °F -3.6 °F 1.2 °F 64% 29.93 in 10.0 mi NNW 12.7 mph 18.4 mph N/A   Clear
5:14 AM 11.1 °F -3.2 °F 1.8 °F 66% 29.94 in 10.0 mi NNW 11.5 mph 17.3 mph N/A   Clear
5:34 AM 10.6 °F -2.2 °F 2.3 °F 69% 29.94 in 10.0 mi NNW 9.2 mph - N/A   Clear
5:54 AM 10.8 °F -5.0 °F 1.9 °F 68% 29.95 in 10.0 mi NNW 13.8 mph 17.3 mph N/A   Clear
6:14 AM 10.4 °F -4.1 °F 1.0 °F 66% 29.96 in 10.0 mi NNW 11.5 mph - N/A   Clear
6:35 AM 10.2 °F -3.5 °F 1.0 °F 66% 29.97 in 10.0 mi NNW 10.4 mph 16.1 mph N/A   Clear
6:54 AM 9.9 °F -5.5 °F 1.0 °F 68% 29.98 in 10.0 mi NW 12.7 mph - N/A   Clear
7:14 AM 9.5 °F -2.6 °F 1.6 °F 70% 29.98 in 10.0 mi NNW 8.1 mph - N/A   Clear
7:34 AM 9.1 °F -4.9 °F 2.3 °F 74% 29.98 in 10.0 mi NW 10.4 mph - N/A   Clear
7:54 AM 8.8 °F -3.5 °F 2.1 °F 74% 29.99 in 10.0 mi NNW 8.1 mph - N/A   Clear
8:15 AM 9.0 °F -3.2 °F 1.9 °F 73% 29.99 in 10.0 mi NNW 8.1 mph - N/A   Clear
8:34 AM 9.5 °F -2.6 °F 1.6 °F 70% 29.99 in 10.0 mi NNW 8.1 mph - N/A   Clear
8:54 AM 10.0 °F -0.9 °F 1.6 °F 69% 30.00 in 10.0 mi North 6.9 mph - N/A   Clear
9:15 AM 10.6 °F -0.2 °F 3.0 °F 72% 30.01 in 10.0 mi NNW 6.9 mph - N/A   Clear
9:34 AM 11.7 °F 1.1 °F 3.9 °F 71% 30.02 in 10.0 mi NNW 6.9 mph - N/A   Scattered Clouds
9:54 AM 12.7 °F 0.4 °F 5.2 °F 72% 30.03 in 10.0 mi NW 9.2 mph - N/A   Mostly Cloudy
10:14 AM 11.5 °F -1.9 °F 4.3 °F 73% 30.03 in 10.0 mi NW 10.4 mph - N/A   Overcast
10:34 AM 12.7 °F 2.4 °F 5.2 °F 72% 30.04 in 10.0 mi NNW 6.9 mph - N/A   Mostly Cloudy
10:55 AM 13.1 °F 0.1 °F 5.7 °F 72% 30.03 in 10.0 mi NW 10.4 mph - N/A   Mostly Cloudy
11:14 AM 12.7 °F 1.4 °F 5.4 °F 72% 30.03 in 10.0 mi NNW 8.1 mph - N/A   Mostly Cloudy
11:34 AM 14.0 °F 2.9 °F 6.4 °F 72% 30.02 in 10.0 mi North 8.1 mph - N/A   Mostly Cloudy
11:55 AM 13.3 °F 4.2 °F 5.7 °F 72% 30.02 in 10.0 mi NW 5.8 mph - N/A   Mostly Cloudy
12:14 PM 14.5 °F 3.6 °F 4.5 °F 64% 30.01 in 10.0 mi NW 8.1 mph - N/A   Scattered Clouds
12:34 PM 14.0 °F 5.1 °F 3.2 °F 62% 30.01 in 10.0 mi NNW 5.8 mph - N/A   Clear
1:14 PM 15.3 °F 4.4 °F 2.8 °F 58% 29.99 in 10.0 mi NNW 8.1 mph - N/A   Clear
1:34 PM 15.6 °F 10.0 °F 2.8 °F 57% 29.99 in 10.0 mi NW 3.5 mph - N/A   Clear
1:54 PM 15.8 °F 7.2 °F 3.7 °F 59% 29.99 in 10.0 mi North 5.8 mph - N/A   Clear
2:14 PM 15.6 °F 7.0 °F 3.7 °F 59% 29.98 in 10.0 mi North 5.8 mph - N/A   Clear
2:35 PM 15.8 °F 8.6 °F 3.7 °F 59% 29.99 in 10.0 mi NNW 4.6 mph - N/A   Clear
2:54 PM 16.0 °F 6.3 °F 3.7 °F 59% 29.99 in 10.0 mi NNW 6.9 mph - N/A   Clear
3:15 PM 16.2 °F 10.6 °F 3.2 °F 57% 29.99 in 10.0 mi NW 3.5 mph - N/A   Clear
3:34 PM 16.7 °F 11.2 °F 2.7 °F 54% 30.00 in 10.0 mi NW 3.5 mph - N/A   Clear
3:54 PM 15.8 °F - 0.1 °F 50% 30.00 in 10.0 mi Calm Calm - N/A   Clear
4:34 PM 14.0 °F - 4.5 °F 66% 30.00 in 10.0 mi Calm Calm - N/A   Clear
4:54 PM 13.5 °F - 4.6 °F 68% 30.00 in 10.0 mi Calm Calm - N/A   Clear
5:14 PM 12.9 °F - 4.3 °F 68% 30.00 in 10.0 mi Calm Calm - N/A   Clear
5:34 PM 11.1 °F - 5.2 °F 77% 29.99 in 10.0 mi Calm Calm - N/A   Clear
5:54 PM 10.9 °F - 5.7 °F 79% 30.00 in 10.0 mi Calm Calm - N/A   Clear
6:14 PM 10.9 °F - 5.4 °F 78% 30.00 in 10.0 mi Calm Calm - N/A   Clear
6:35 PM 10.4 °F - 5.0 °F 79% 30.00 in 10.0 mi Calm Calm - N/A   Clear
6:54 PM 10.4 °F - 5.0 °F 79% 29.99 in 10.0 mi Calm Calm - N/A   Clear
7:14 PM 9.5 °F - 5.0 °F 82% 29.98 in 10.0 mi Calm Calm - N/A   Clear
7:35 PM 8.6 °F - 4.6 °F 84% 29.97 in 10.0 mi Calm Calm - N/A   Clear
7:54 PM 9.1 °F - 5.7 °F 86% 29.97 in 10.0 mi Calm Calm - N/A   Clear
8:35 PM 9.5 °F - 5.7 °F 85% 29.96 in 10.0 mi Calm Calm - N/A   Clear
8:54 PM 9.5 °F - 6.4 °F 87% 29.96 in 10.0 mi Calm Calm - N/A   Clear
9:14 PM 11.1 °F - 6.1 °F 80% 29.96 in 10.0 mi Calm Calm - N/A   Clear
9:34 PM 12.4 °F 4.6 °F 5.5 °F 74% 29.94 in 10.0 mi SE 4.6 mph - N/A   Mostly Cloudy
9:54 PM 12.7 °F 6.7 °F 5.9 °F 74% 29.95 in 10.0 mi SE 3.5 mph - N/A   Overcast
10:15 PM 13.5 °F 5.8 °F 7.9 °F 78% 29.94 in 10.0 mi SE 4.6 mph - N/A   Overcast
10:34 PM 14.0 °F 5.1 °F 7.9 °F 77% 29.94 in 10.0 mi SE 5.8 mph - N/A   Overcast
10:54 PM 14.2 °F 5.3 °F 7.0 °F 73% 29.93 in 10.0 mi SE 5.8 mph - N/A   Overcast
11:15 PM 14.5 °F 5.7 °F 7.0 °F 72% 29.93 in 10.0 mi SE 5.8 mph - N/A   Overcast
11:34 PM 14.7 °F 4.8 °F 6.8 °F 71% 29.93 in 10.0 mi SE 6.9 mph - N/A   Overcast
11:54 PM 14.4 °F 5.5 °F 5.9 °F 69% 29.92 in 10.0 mi SE 5.8 mph - N/A   Mostly Cloudy